Location: Quedlinburg
(51.7921°N, 11.1414°E)
Time: 04:46:56
(UTC+02:00)

STRAND 1 - Pass Details

Date: 23 March 2026
Orbit: 761 x 775 km, 98.4° (Epoch: 16 April)

Event Time Altitude Azimuth Distance (km) Brightness Sun altitude
Rises 19:53:06 0° 6° (N) 3,240 ? -12.8°
Reaches altitude 10° 19:55:52 10° 352° (N) 2,309 ? -13.2°
Maximum altitude 19:59:39 22° 303° (WNW) 1,636 ? -13.8°
Drops below altitude 10° 20:03:26 10° 255° (WSW) 2,297 ? -14.3°
Sets 20:06:11 0° 240° (WSW) 3,219 ? -14.7°
